Cincinnati, OH

3:30 AM EST on December 11, 2019 (GMT -0500)
Cincinnati Municipal-Lunken

Weather History for KLUK - September, 2019

Change the Weather History Date:

Tuesday, September 3, 2019

  Actual Average Record
Temperature  
Mean Temperature 72 °F -  
Max Temperature 84 °F 81 °F 99 °F (2011)
Min Temperature 60 °F 64 °F 50 °F (1952)
Cooling Degree Days 7    
Growing Degree Days 22 (Base 50)    
Moisture  
Dew Point 64 °F    
Average Humidity 90    
Maximum Humidity 100    
Minimum Humidity 57    
Precipitation  
Precipitation 0.00 in - - ()
Sea Level Pressure  
Sea Level Pressure 30.05 in    
Wind  
Wind Speed 2 mph ()    
Max Wind Speed 12 mph    
Max Gust Speed -    
Visibility 4.5 miles    
Events Fog    
Averages and records for this station are not official NWS values.
T = Trace of Precipitation, MM = Missing Value Source: Averaged Metar Reports

Daily Weather History Graph

Daily Weather History Graph

Search for Another Location

Airport or City:

Astronomy

Sep. 03, 2019 Rise Set
Actual Time 7:08 AM EDT 8:05 PM EDT
Civil Twilight 6:40 AM EDT 8:32 PM EDT
Nautical Twilight 6:08 AM EDT 9:05 PM EDT
Astronomical Twilight 5:34 AM EDT 9:38 PM EDT
Moon 11:57 AM EDT (9/3) 11:04 PM EDT (9/3)
Length of Visible Light 13h 52m
Length of Day
12h 57m
Waxing Crescent, 24% of the Moon is Illuminated
Sep 3
Waxing Crescent
Sep 5
First Quarter
Sep 14
Full
Sep 21
Last Quarter
Sep 28
New

Hourly Weather History & Observations

Time (EDT) Temp. Heat Index Dew Point Humidity Pressure Visibility Wind Dir Wind Speed Gust Speed Precip Events Conditions
12:33 AM 64.0 °F - 64.0 °F 100% 30.09 in 1.2 mi Calm Calm - N/A   Clear
12:41 AM 64.0 °F - 63.0 °F 96% 30.09 in 0.5 mi Calm Calm - N/A Fog Fog
12:47 AM 64.4 °F - 62.6 °F 94% 30.09 in 2.0 mi Calm Calm - N/A   Clear
12:53 AM 64.0 °F - 63.0 °F 96% 30.08 in 5.0 mi Calm Calm - N/A   Clear
1:38 AM 62.1 °F - 62.1 °F 100% 30.09 in 2.0 mi Calm Calm - N/A   Clear
1:53 AM 63.0 °F - 63.0 °F 100% 30.08 in 4.0 mi NNE 3.5 mph - N/A   Clear
2:31 AM 63.0 °F - 63.0 °F 100% 30.09 in 2.5 mi NE 3.5 mph - N/A   Clear
2:38 AM 63.0 °F - 62.1 °F 97% 30.08 in 7.0 mi NE 3.5 mph - N/A   Clear
2:53 AM 63.0 °F - 62.1 °F 97% 30.07 in 6.0 mi NE 3.5 mph - N/A   Clear
3:03 AM 62.1 °F - 62.1 °F 100% 30.08 in 0.8 mi NE 3.5 mph - N/A   Clear
3:06 AM 62.1 °F - 61.0 °F 96% 30.08 in 0.2 mi NE 3.5 mph - N/A Fog Fog
3:22 AM 62.1 °F - 62.1 °F 100% 30.07 in 1.0 mi Calm Calm - N/A   Mist
3:25 AM 62.1 °F - 62.1 °F 100% 30.07 in 2.0 mi SSE 3.5 mph - N/A   Partly Cloudy
3:53 AM 62.1 °F - 61.0 °F 96% 30.06 in 1.5 mi ENE 3.5 mph - N/A   Partly Cloudy
3:55 AM 61.0 °F - 61.0 °F 100% 30.07 in 0.8 mi NE 3.5 mph - N/A   Mist
4:16 AM 61.0 °F - 61.0 °F 100% 30.06 in 1.2 mi Calm Calm - N/A   Partly Cloudy
4:35 AM 61.0 °F - 61.0 °F 100% 30.07 in 1.2 mi Calm Calm - N/A   Scattered Clouds
4:43 AM 62.1 °F - 62.1 °F 100% 30.07 in 0.8 mi Calm Calm - N/A   Mist
4:53 AM 61.0 °F - 61.0 °F 100% 30.06 in 0.2 mi Calm Calm - N/A Fog Fog
5:11 AM 61.0 °F - 61.0 °F 100% 30.06 in 0.5 mi Calm Calm - N/A Fog Fog
5:22 AM 62.1 °F - 62.1 °F 100% 30.06 in 2.5 mi Calm Calm - N/A   Overcast
5:32 AM 61.0 °F - 61.0 °F 100% 30.06 in 0.8 mi Calm Calm - N/A   Overcast
5:51 AM 60.8 °F - 60.8 °F 100% 30.06 in 0.2 mi Calm Calm - N/A Fog Fog
5:53 AM 62.1 °F - 62.1 °F 100% 30.06 in 0.2 mi Calm Calm - N/A Fog Fog
6:53 AM 63.0 °F - 63.0 °F 100% 30.06 in 0.2 mi Calm Calm - N/A Fog Fog
7:53 AM 63.0 °F - 63.0 °F 100% 30.07 in 0.2 mi NE 3.5 mph - N/A Fog Fog
8:13 AM 63.0 °F - 63.0 °F 100% 30.09 in 0.2 mi Calm Calm - N/A Fog Fog
8:47 AM 64.4 °F - 64.4 °F 100% 30.09 in 1.0 mi Calm Calm - N/A   Mist
8:53 AM 64.9 °F - 64.9 °F 100% 30.08 in 1.2 mi Calm Calm - N/A   Overcast
9:01 AM 64.9 °F - 64.9 °F 100% 30.08 in 3.0 mi Calm Calm - N/A   Mostly Cloudy
9:13 AM 64.9 °F - 64.9 °F 100% 30.08 in 8.0 mi Calm Calm - N/A   Clear
9:53 AM 71.1 °F - 66.9 °F 87% 30.08 in 10.0 mi Calm Calm - N/A   Clear
10:53 AM 75.9 °F - 68.0 °F 76% 30.07 in 10.0 mi South 4.6 mph - N/A   Clear
11:53 AM 79.0 °F - 68.0 °F 69% 30.07 in 10.0 mi South 3.5 mph - N/A   Clear
12:53 PM 81.0 °F 83.0 °F 66.0 °F 60% 30.06 in 10.0 mi South 5.8 mph - N/A   Clear
1:53 PM 82.9 °F 85.8 °F 68.0 °F 60% 30.04 in 10.0 mi Variable 3.5 mph - N/A   Clear
2:53 PM 84.0 °F 87.0 °F 68.0 °F 58% 30.01 in 10.0 mi South 9.2 mph - N/A   Scattered Clouds
3:53 PM 84.9 °F 88.2 °F 68.0 °F 57% 29.99 in 10.0 mi Variable 5.8 mph - N/A   Partly Cloudy
4:53 PM 84.9 °F 88.2 °F 68.0 °F 57% 29.97 in 10.0 mi South 10.4 mph - N/A   Partly Cloudy
5:53 PM 84.0 °F 87.0 °F 68.0 °F 58% 29.93 in 10.0 mi South 11.5 mph - N/A   Partly Cloudy
6:53 PM 82.0 °F 84.9 °F 68.0 °F 62% 29.93 in 10.0 mi SSW 11.5 mph - N/A   Clear
7:53 PM 75.9 °F - 68.0 °F 76% 29.94 in 10.0 mi SSW 9.2 mph - N/A   Clear
8:53 PM 73.0 °F - 68.0 °F 84% 29.93 in 10.0 mi SSW 5.8 mph - N/A   Clear
9:53 PM 73.0 °F - 66.9 °F 81% 29.91 in 10.0 mi South 6.9 mph - N/A   Clear
10:53 PM 71.1 °F - 68.0 °F 90% 29.94 in 10.0 mi Calm Calm - N/A   Clear
11:53 PM 70.0 °F - 68.0 °F 93% 29.94 in 10.0 mi Calm Calm - N/A   Clear